Regional Weather Roundup
Issued by NWS

Home | Current Version | Previous Version | Text Only | Print | Product List | Glossary Off
Versions: 1 2 3 4 5 6 7 8 9 10 11 12 13 14 15 16 17 18 19 20 21 22 23 24 25 26 27 28 29 30 31 32 33 34 35 36 37 38 39 40 41 42 43 44 45 46 47 48 49 50

469
ASUS43 KLMK 140502
RWRKY
KENTUCKY REGIONAL WEATHER ROUNDUP
NATIONAL WEATHER SERVICE LOUISVILLE KY
1200 AM EST SUN FEB 14 2016

NOTE "FAIR" INDICATES FEW OR NO CLOUDS BELOW 12,000 FEET
WITH NO SIGNIFICANT WEATHER AND/OR OBSTRUCTIONS TO VISIBILITY.

KYZ001>023-026-027-061>063-070>075-140600-
WESTERN AND SOUTH CENTRAL KENTUCKY

CITY           SKY/WX    TMP DP  RH WIND       PRES   REMARKS
PADUCAH        CLOUDY    25   7  46 E8        30.42F WCI  16
HENDERSON      CLOUDY    23   3  42 E9        30.46S WCI  13
OWENSBORO      CLOUDY    22   3  43 E7        30.46F WCI  14
HOPKINSVILLE   CLOUDY    25   6  44 E7        30.43R WCI  17
BOWLING GREEN  CLOUDY    25   9  50 E5        30.44F WCI  19
GLASGOW        NOT AVBL
$$

KYZ024-025-028>034-038-045-046-053-140600-
NORTH CENTRAL KENTUCKY

CITY           SKY/WX    TMP DP  RH WIND       PRES   REMARKS
LOUISVILLE/SDF CLOUDY    20   2  45 E9        30.48S WCI   9
LOUISVILLE/LOU PTCLDY    19   3  49 NE6       30.48F WCI  11
FORT KNOX      CLOUDY    20   2  46 E6        30.43F WCI  12
$$

KYZ035>037-039>044-047>052-055>060-089>105-140600-
NORTHEAST KENTUCKY

CITY           SKY/WX    TMP DP  RH WIND       PRES   REMARKS
LEXINGTON      CLOUDY    16   3  56 E10       30.44F WCI   4
COVINGTON      CLOUDY    13   4  67 CALM      30.46F
FRANKFORT      PTCLDY    17   2  51 NE7       30.45F WCI   8
$$

KYZ054-064>069-076>088-106>120-140600-
SOUTHEAST KENTUCKY

CITY           SKY/WX    TMP DP  RH WIND       PRES   REMARKS
JACKSON        CLOUDY    14   1  56 NE3       30.42F
LONDON         CLOUDY    16   2  54 E5        30.41F WCI   9
SOMERSET       NOT AVBL
MIDDLESBORO    NOT AVBL
MONTICELLO     CLOUDY    15   9  76 NW7       30.45S WCI   5
$$





USA.gov is the U.S. government's official web portal to all federal, state and local government web resources and services.